[[{"header":{"parameterUnit":"m.s-1","parameterCategory":1,"la1":30.2991,"la2":30.254,"lo1":-89.0895,"lo2":-89.0444,"dy":0.0017,"dx":0.0017,"nx":28,"ny":28,"refTime":"2024-07-02T09:00:00:Z","depth":0,"parameterNumber":2,"parameterNumberName":"U-component_of_WINDS"},"data":[0,0,0,0,0,0,0,0,0,0,0,0,0,0,0,0,0,0,0,0,0,0,0,0,0,0,0,0,0,0,0,0,0,0,0,0,0,0,0,0,0,0,0,0,0,0,0,0,0,0,0,0,0,0,0,0,0,0,-0.7766,-0.7766,0,-0.7709,-0.7709,-0.7708,-0.7639,-0.7638,-0.7637,-0.7636,-0.7577,-0.7577,-0.7576,0,0,0,0,0,0,0,0,0,0,0,0,0,-0.7816,-0.7816,-0.7767,-0.7766,-0.7765,-0.7709,-0.7709,-0.7708,-0.764,-0.7638,-0.7637,-0.7636,-0.7578,-0.7577,-0.7576,0,0,0,0,0,0,0,0,0,0,0,0,0,-0.7781,-0.7816,-0.7767,-0.7724,-0.772,-0.7709,-0.7708,-0.7707,-0.764,-0.7638,-0.7637,-0.7635,-0.7578,-0.7577,-0.7576,-0.7602,0,0,-0.7573,-0.7573,0,0,0,0,0,0,0,0,-0.7783,-0.7779,-0.7731,-0.7727,-0.7722,-0.768,-0.7704,-0.7672,-0.764,-0.767,-0.7636,-0.7634,-0.7613,-0.7609,-0.7602,-0.76,-0.7597,-0.7573,-0.7573,-0.7572,-0.7572,0,0,0,0,0,0,0,-0.7785,-0.7781,-0.7744,-0.7731,-0.7725,-0.7708,-0.7701,-0.7698,-0.7651,-0.7668,-0.7662,-0.7657,-0.761,-0.7603,-0.76,-0.7596,-0.7573,-0.7573,-0.7572,-0.7572,-0.7613,-0.7615,0,0,0,0,0,0,-0.7794,-0.7783,-0.7746,-0.7742,-0.7749,-0.7708,-0.7701,-0.7695,-0.7651,-0.7643,-0.7658,-0.7654,-0.7605,-0.7601,-0.7597,-0.7626,-0.7572,-0.7572,-0.7571,-0.7612,-0.7614,-0.7615,0,0,0,0,0,0,-0.7795,-0.7791,-0.7748,-0.7761,-0.7754,-0.7709,-0.7703,-0.7695,-0.7687,-0.7644,-0.7635,-0.7659,-0.7603,-0.7599,-0.7602,-0.7623,-0.7571,-0.757,-0.761,-0.7612,-0.7614,-0.7682,0,0,0,0,0,0,-0.7797,-0.7792,-0.7802,-0.7762,-0.7754,-0.7754,-0.7705,-0.7695,-0.7686,-0.768,-0.7642,-0.7635,-0.7602,-0.7603,-0.7601,-0.762,-0.757,-0.7608,-0.7611,-0.7614,-0.7678,-0.7687,-0.7694,0,0,0,0,0,-0.7799,-0.7823,-0.7803,-0.7799,-0.7765,-0.7755,-0.775,-0.7712,-0.7688,-0.7697,-0.7669,-0.7636,-0.7621,-0.7604,-0.7601,-0.7621,-0.7606,-0.761,-0.7613,-0.7675,-0.7685,-0.7694,0,0,0,0,0,0,-0.7867,-0.7817,-0.7794,-0.7806,-0.7785,-0.7743,-0.7754,-0.7725,-0.771,-0.7705,-0.7658,-0.765,-0.7659,-0.764,-0.7622,-0.7644,-0.7608,-0.7612,-0.7656,-0.7666,-0.7674,-0.7679,-0.7569,0,0,0,0,0,-0.7883,-0.7879,-0.7836,-0.7851,-0.7841,-0.78,-0.7794,-0.7766,-0.7743,-0.7733,-0.7706,-0.7684,-0.7674,-0.7669,-0.7657,-0.7675,-0.7666,-0.7686,-0.7695,-0.7702,-0.7705,-0.7713,-0.7722,-0.7627,-0.7627,-0.7627,0,0,-0.7917,-0.7889,-0.789,-0.7864,-0.7844,-0.7841,-0.7793,-0.7791,-0.7789,-0.7733,-0.7735,-0.7713,-0.7686,-0.7697,-0.77,-0.7681,-0.7729,-0.7706,-0.7712,-0.7712,-0.7718,-0.7727,-0.7735,-0.763,-0.7629,-0.7629,0,0,-0.7977,-0.7956,-0.7966,-0.7947,-0.7919,-0.7891,-0.7893,-0.7856,-0.784,-0.784,-0.7799,-0.7794,-0.7778,-0.7761,-0.775,-0.7803,-0.7772,-0.78,-0.7843,-0.7852,-0.7859,-0.7866,-0.7885,-0.7893,-0.7804,-0.7804,-0.7804,0,-0.8023,-0.8016,-0.7975,-0.7976,-0.7966,-0.7915,-0.7925,-0.7909,-0.7878,-0.7872,-0.7852,-0.7831,-0.7809,-0.7815,-0.7828,-0.782,-0.7822,-0.7805,-0.7862,-0.7867,-0.7873,-0.7891,-0.7898,-0.7808,-0.7807,-0.7807,-0.7807,0,-0.8074,-0.807,-0.8082,-0.8054,-0.8044,-0.805,-0.8009,-0.8005,-0.7978,-0.7952,-0.7954,-0.7925,-0.7908,-0.7907,-0.788,-0.7909,-0.7898,-0.787,-0.7834,-0.7886,-0.7903,-0.7909,-0.7813,-0.7812,-0.7811,-0.781,0,0,-0.8176,-0.8124,-0.8129,-0.8116,-0.808,-0.8077,-0.808,-0.8062,-0.806,-0.804,-0.8042,-0.8029,-0.8003,-0.7991,-0.7962,-0.7969,-0.8014,-0.794,-0.7939,-0.7955,-0.8044,-0.8066,-0.8075,-0.7993,-0.7994,-0.7995,-0.8047,0,-0.823,-0.8233,-0.8195,-0.8209,-0.8205,-0.8156,-0.8159,-0.8138,-0.8114,-0.8107,-0.808,-0.8072,-0.8038,-0.803,-0.8035,-0.8007,-0.8031,-0.8003,-0.7994,-0.7994,-0.8003,-0.8083,-0.8106,-0.8157,-0.8053,-0.8054,-0.8054,0,-0.8293,-0.8278,-0.8291,-0.8255,-0.8252,-0.8255,-0.8236,-0.823,-0.8204,-0.8186,-0.8173,-0.8139,-0.814,-0.8105,-0.8105,-0.8087,-0.8081,-0.8067,-0.8068,-0.8066,-0.8028,-0.8084,-0.8172,-0.818,-0.8064,-0.8063,-0.8062,0,-0.8367,-0.8349,-0.8354,-0.8344,-0.8302,-0.8306,-0.8288,-0.8261,-0.8253,-0.8237,-0.8231,-0.8215,-0.8206,-0.8194,-0.8157,-0.8135,-0.8162,-0.8124,-0.8147,-0.8148,-0.8156,-0.8156,-0.8244,-0.8151,-0.8151,-0.8151,-0.815,0,-0.8432,-0.8442,-0.8387,-0.8391,-0.84,-0.8357,-0.8368,-0.8345,-0.8322,-0.832,-0.8277,-0.8276,-0.8227,-0.8221,-0.8192,-0.8197,-0.8193,-0.8179,-0.8171,-0.8183,-0.8185,-0.8179,-0.8175,-0.8152,-0.8152,-0.8152,-0.8151,0,-0.8516,-0.848,-0.8483,-0.8443,-0.8433,-0.8442,-0.8408,-0.8409,-0.8382,-0.8381,-0.8378,-0.8336,-0.8326,-0.8288,-0.8269,-0.8249,-0.8264,-0.8249,-0.8273,-0.8268,-0.8294,-0.8292,-0.8382,-0.8392,-0.8292,-0.8293,-0.8294,0,-0.856,-0.8567,-0.8528,-0.8524,-0.8508,-0.8502,-0.8494,-0.8451,-0.8444,-0.8416,-0.8421,-0.8408,-0.8395,-0.8382,-0.835,-0.8335,-0.8319,-0.8352,-0.8317,-0.8329,-0.8321,-0.8321,-0.8322,-0.836,-0.8361,-0.8362,-0.8363,0,-0.8643,-0.8624,-0.8614,-0.8598,-0.8589,-0.8574,-0.8556,-0.8555,-0.8508,-0.8502,-0.8492,-0.8482,-0.8463,-0.8451,-0.8431,-0.8412,-0.838,-0.8374,-0.8379,-0.8392,-0.8406,-0.8399,-0.8294,-0.8372,-0.8372,-0.8371,-0.837,-0.837,-0.8709,-0.8712,-0.8686,-0.8676,-0.8658,-0.8642,-0.8642,-0.8615,-0.8606,-0.8587,-0.8562,-0.8556,-0.853,-0.8499,-0.8484,-0.8478,-0.846,-0.8466,-0.8468,-0.8471,-0.8477,-0.8406,-0.8474,-0.8473,-0.8473,-0.8473,-0.8473,0,-0.8789,-0.877,-0.8761,-0.8738,-0.873,-0.87,-0.8679,-0.8674,-0.8669,-0.8648,-0.8636,-0.8625,-0.8612,-0.8579,-0.8564,-0.8565,-0.855,-0.8563,-0.8563,-0.8559,-0.8494,-0.8491,-0.8575,-0.8575,-0.8575,-0.8575,-0.8575,-0.8575,-0.883,-0.8835,-0.8814,-0.881,-0.8789,-0.8783,-0.8773,-0.8759,-0.8742,-0.8731,-0.8721,-0.8699,-0.8673,-0.8655,-0.8643,-0.8633,-0.863,-0.8648,-0.8634,-0.8573,-0.8563,-0.8554,-0.8552,-0.8647,-0.8647,-0.8699,-0.87,-0.87]},{"header":{"parameterUnit":"m.s-1","parameterCategory":1,"la1":30.2991,"la2":30.254,"lo1":-89.0895,"lo2":-89.0444,"dy":0.0017,"dx":0.0017,"nx":28,"ny":28,"refTime":"2024-07-02T09:00:00:Z","depth":0,"parameterNumber":3,"parameterNumberName":"V-component_of_WINDS"},"data":[0,0,0,0,0,0,0,0,0,0,0,0,0,0,0,0,0,0,0,0,0,0,0,0,0,0,0,0,0,0,0,0,0,0,0,0,0,0,0,0,0,0,0,0,0,0,0,0,0,0,0,0,0,0,0,0,0,0,-0.4963,-0.4963,0,-0.5002,-0.5002,-0.5003,-0.5031,-0.5031,-0.5032,-0.5032,-0.5071,-0.5072,-0.5073,0,0,0,0,0,0,0,0,0,0,0,0,0,-0.4911,-0.4912,-0.4963,-0.4963,-0.4964,-0.5002,-0.5002,-0.5003,-0.5031,-0.5031,-0.5032,-0.5032,-0.5071,-0.5072,-0.5073,0,0,0,0,0,0,0,0,0,0,0,0,0,-0.494,-0.4912,-0.4963,-0.4982,-0.4985,-0.5002,-0.5002,-0.5003,-0.5031,-0.5031,-0.5032,-0.5032,-0.507,-0.5072,-0.5073,-0.5073,0,0,-0.5077,-0.5077,0,0,0,0,0,0,0,0,-0.4939,-0.4942,-0.4979,-0.4981,-0.4983,-0.5012,-0.4999,-0.5026,-0.5031,-0.5013,-0.5032,-0.5032,-0.5051,-0.5054,-0.506,-0.5075,-0.5077,-0.5077,-0.5077,-0.5078,-0.5078,0,0,0,0,0,0,0,-0.4937,-0.4941,-0.4978,-0.4979,-0.4982,-0.4989,-0.4994,-0.5004,-0.503,-0.5015,-0.5017,-0.5021,-0.5052,-0.5059,-0.5062,-0.5077,-0.5077,-0.5078,-0.5078,-0.5079,-0.5095,-0.5094,0,0,0,0,0,0,-0.4932,-0.4939,-0.4977,-0.4979,-0.4962,-0.499,-0.4995,-0.5002,-0.503,-0.5034,-0.5021,-0.5023,-0.5057,-0.506,-0.5063,-0.5066,-0.5078,-0.5079,-0.508,-0.5095,-0.5095,-0.5094,0,0,0,0,0,0,-0.493,-0.4935,-0.4975,-0.496,-0.4965,-0.499,-0.4999,-0.5003,-0.501,-0.5034,-0.5039,-0.5023,-0.5057,-0.5061,-0.5071,-0.5068,-0.508,-0.5081,-0.5095,-0.5095,-0.5095,-0.5071,0,0,0,0,0,0,-0.4929,-0.4934,-0.4935,-0.4959,-0.4966,-0.4982,-0.4998,-0.5004,-0.5012,-0.5015,-0.5038,-0.5042,-0.5058,-0.5069,-0.5072,-0.507,-0.5082,-0.5096,-0.5095,-0.5095,-0.5073,-0.507,-0.5068,0,0,0,0,0,-0.4927,-0.4926,-0.4935,-0.4939,-0.4967,-0.4982,-0.4986,-0.5005,-0.5012,-0.5013,-0.5028,-0.5041,-0.5067,-0.5069,-0.5073,-0.5071,-0.5096,-0.5095,-0.5095,-0.5074,-0.5071,-0.5068,0,0,0,0,0,0,-0.49,-0.493,-0.494,-0.4947,-0.4962,-0.4987,-0.4989,-0.5001,-0.5014,-0.5016,-0.5038,-0.5043,-0.505,-0.5062,-0.5063,-0.5073,-0.5083,-0.5083,-0.5066,-0.5063,-0.5061,-0.5059,-0.5083,0,0,0,0,0,-0.4895,-0.4905,-0.493,-0.4934,-0.4941,-0.4964,-0.4971,-0.4984,-0.5,-0.5007,-0.5023,-0.5038,-0.505,-0.5057,-0.5069,-0.5074,-0.508,-0.5075,-0.5072,-0.507,-0.5071,-0.5075,-0.5073,-0.5092,-0.5092,-0.5092,0,0,-0.4885,-0.4902,-0.4907,-0.4929,-0.4943,-0.4952,-0.4969,-0.4978,-0.4986,-0.5008,-0.5018,-0.5031,-0.5049,-0.5056,-0.506,-0.5066,-0.5066,-0.507,-0.5068,-0.5069,-0.5074,-0.5072,-0.5071,-0.5092,-0.5092,-0.5092,0,0,-0.4871,-0.4885,-0.4891,-0.4904,-0.4924,-0.4938,-0.4939,-0.4963,-0.4972,-0.4983,-0.5,-0.5009,-0.5028,-0.5041,-0.505,-0.5041,-0.5054,-0.5044,-0.5034,-0.5037,-0.5036,-0.5035,-0.5033,-0.5031,-0.5044,-0.5044,-0.5044,0,-0.4856,-0.4872,-0.4892,-0.4901,-0.491,-0.4931,-0.4937,-0.4948,-0.4971,-0.4977,-0.4982,-0.5008,-0.5022,-0.5033,-0.5031,-0.5037,-0.5039,-0.5043,-0.5035,-0.5034,-0.5033,-0.5031,-0.503,-0.5043,-0.5043,-0.5043,-0.5043,0,-0.4853,-0.4863,-0.4865,-0.4887,-0.4897,-0.4904,-0.4924,-0.4932,-0.4944,-0.4958,-0.4969,-0.4986,-0.5002,-0.5005,-0.5017,-0.5018,-0.5021,-0.503,-0.5041,-0.5029,-0.5028,-0.5028,-0.5041,-0.5042,-0.5042,-0.5042,0,0,-0.4824,-0.4857,-0.4858,-0.4868,-0.4892,-0.49,-0.4908,-0.4924,-0.493,-0.4945,-0.4953,-0.4969,-0.4978,-0.4988,-0.5001,-0.5004,-0.4997,-0.5013,-0.5014,-0.5011,-0.5001,-0.4994,-0.4993,-0.5005,-0.5005,-0.5005,-0.5,0,-0.4815,-0.4831,-0.4849,-0.4859,-0.487,-0.4889,-0.4896,-0.4911,-0.4925,-0.4935,-0.495,-0.4961,-0.4971,-0.4978,-0.4982,-0.4997,-0.4996,-0.4998,-0.5013,-0.5014,-0.5009,-0.4993,-0.4986,-0.498,-0.4999,-0.4999,-0.4999,0,-0.4807,-0.4822,-0.4833,-0.4856,-0.4861,-0.4867,-0.4884,-0.4893,-0.4911,-0.492,-0.4931,-0.4946,-0.4955,-0.4963,-0.4977,-0.4978,-0.4985,-0.4994,-0.4994,-0.4997,-0.5006,-0.4996,-0.4978,-0.4977,-0.4998,-0.4998,-0.4998,0,-0.4787,-0.4809,-0.4818,-0.4827,-0.4853,-0.4857,-0.4869,-0.4887,-0.4895,-0.491,-0.4916,-0.493,-0.4939,-0.495,-0.4968,-0.4972,-0.498,-0.499,-0.4988,-0.4988,-0.499,-0.499,-0.4974,-0.4992,-0.4992,-0.4992,-0.4992,0,-0.4776,-0.4782,-0.481,-0.4816,-0.4823,-0.4844,-0.4851,-0.4864,-0.4879,-0.4888,-0.4906,-0.4913,-0.4936,-0.4947,-0.496,-0.497,-0.4973,-0.4981,-0.4985,-0.4981,-0.498,-0.4986,-0.4988,-0.4992,-0.4992,-0.4992,-0.4992,0,-0.4755,-0.4773,-0.4786,-0.481,-0.4816,-0.4821,-0.4842,-0.4848,-0.4862,-0.4873,-0.4877,-0.4899,-0.4913,-0.4931,-0.495,-0.4959,-0.4967,-0.4973,-0.4962,-0.4964,-0.4962,-0.4962,-0.4951,-0.4951,-0.4968,-0.4968,-0.4968,0,-0.4747,-0.4752,-0.4778,-0.4785,-0.4796,-0.4807,-0.4817,-0.4837,-0.4846,-0.4866,-0.487,-0.4885,-0.4898,-0.4918,-0.4936,-0.495,-0.4957,-0.4952,-0.4959,-0.4955,-0.4958,-0.4958,-0.4959,-0.495,-0.495,-0.495,-0.495,0,-0.4732,-0.4741,-0.4754,-0.477,-0.4781,-0.4794,-0.4808,-0.4813,-0.4836,-0.4845,-0.486,-0.487,-0.4889,-0.4904,-0.4921,-0.4932,-0.4945,-0.4947,-0.4948,-0.4943,-0.4937,-0.4942,-0.4958,-0.4947,-0.4948,-0.4948,-0.4948,-0.4948,-0.4718,-0.4724,-0.4743,-0.4757,-0.477,-0.4783,-0.479,-0.4805,-0.4818,-0.4836,-0.4846,-0.486,-0.4877,-0.4902,-0.4912,-0.4923,-0.4929,-0.4929,-0.493,-0.493,-0.4928,-0.4934,-0.4926,-0.4926,-0.4927,-0.4927,-0.4927,0,-0.4705,-0.4718,-0.473,-0.475,-0.4761,-0.4772,-0.4788,-0.4797,-0.4809,-0.4824,-0.4836,-0.4853,-0.4867,-0.4885,-0.4901,-0.4906,-0.4913,-0.491,-0.491,-0.4913,-0.4923,-0.4921,-0.4905,-0.4905,-0.4905,-0.4905,-0.4905,-0.4905,-0.4699,-0.471,-0.4721,-0.4739,-0.4752,-0.4766,-0.4774,-0.4786,-0.4799,-0.4817,-0.4829,-0.4841,-0.4857,-0.4874,-0.4888,-0.4893,-0.4898,-0.4894,-0.4901,-0.491,-0.4912,-0.4914,-0.4913,-0.4895,-0.4895,-0.489,-0.489,-0.489]}]]